Regional Weather Roundup
Issued by NWS

Home | Current Version | Previous Version | Text Only | Print | Product List | Glossary On
Versions: 1 2 3 4 5 6 7 8 9 10 11 12 13 14 15 16 17 18 19 20 21 22 23 24 25 26 27 28 29 30 31 32 33 34 35 36 37 38 39 40 41 42 43 44 45 46 47 48 49 50
000
ASUS43 KMPX 280601
RWRMN
WEATHER ROUNDUP FOR MINNESOTA
NATIONAL WEATHER SERVICE TWIN CITIES/CHANHASSEN MN
1200 AM CST TUE FEB 28 2017


NOTE: "FAIR" INDICATES FEW OR NO CLOUDS BELOW 12,000 FEET WITH NO
SIGNIFICANT WEATHER AND/OR OBSTRUCTIONS TO VISIBILITY. N/A MEANS
CURRENT SKY AND/OR WEATHER CONDITIONS ARE NOT AVAILABLE.

MNZ060>063-068>070-280700-
   Twin Cities Metro

CITY           SKY/WX    TMP DP  RH WIND       PRES   REMARKS
TWIN CITIES    MOCLDY    38  28  67 SE12      29.81F
6HR MIN TEMP:  35; 6HR MAX TEMP:  39;

ST PAUL        PTCLDY    36  29  75 SE9       29.83F
CRYSTAL        MOCLDY    36  26  67 SE3       29.81F
BLAINE         PTCLDY    37  28  70 SE6       29.81F
LAKEVILLE        N/A     36  30  80 SE5       29.81F
EDEN PRAIRIE   MOCLDY    35  28  75 SE5       29.80F WCI  31
6HR MIN TEMP:  35; 6HR MAX TEMP:  39;

SOUTH ST PAUL  CLOUDY    37  28  69 SE5       29.82F
LAKE ELMO      MOCLDY    37  30  75 SE7       29.83F
$$
MNZ001>005-007-008-013>017-022>024-027-028-280700-
   Northwest Minnesota

CITY           SKY/WX    TMP DP  RH WIND       PRES   REMARKS
BEMIDJI        CLOUDY    26  15  63 N9        29.82S WCI  16
HALLOCK        MOCLDY    14   9  79 N10       29.95F WCI   1
ROSEAU         CLOUDY    16  12  86 NE10      29.93S WCI   3
WARROAD        FLURRIES  16  12  86 N9        29.94R WCI   4
THIEF RVR FALL CLOUDY    19  16  88 N10       29.90S WCI   7
CROOKSTON      CLOUDY    19  18  93 NE12      29.92R WCI   7
FOSSTON        CLOUDY    21  16  79 N10       29.86R WCI  10
DETROIT LAKES  CLOUDY    28  25  86 N6        29.81S WCI  22
MOORHEAD       CLOUDY    23  21  93 N17       29.86R WCI   9
PARK RAPIDS    CLOUDY    30  20  66 NE6       29.78F WCI  24
MAHNOMEN       MOCLDY    24  17  73 N9        29.83S WCI  14
$$
MNZ006-009>011-018-025>026-280700-
   North Central Minnesota

CITY           SKY/WX    TMP DP  RH WIND       PRES   REMARKS
BAUDETTE       CLOUDY    20  16  84 N8        29.89F WCI  10
FLAG ISLAND    CLOUDY    14  10  85 N13       29.94R WCI   0
INTL FALLS     CLOUDY    23  13  65 NE7       29.89S WCI  15
6HR MIN TEMP:  23; 6HR MAX TEMP:  27; 6HR PCP:  0.01;

WASKISH        CLOUDY    25  16  68 NE7       29.87S WCI  17
BIG FORK       CLOUDY    28  19  69 NE8       29.83F WCI  20
LONGVILLE      CLOUDY    28  27  93 CALM      29.79F
GRAND RAPIDS   CLOUDY    32  23  69 SE9       29.82F WCI  24
CRANE LAKE     LGT SNOW  23  21  93 CALM      29.90F
ORR            CLOUDY    27  16  63 CALM      29.83F
COOK           CLOUDY    27  21  80 CALM      29.85F
WALKER         CLOUDY    28  20  73 CALM      29.80F
$$
MNZ012-019>021-037-280700-
   Northeast Minnesota

CITY           SKY/WX    TMP DP  RH WIND       PRES   REMARKS
DULUTH         CLOUDY    26  23  88 E3        29.84F
6HR MIN TEMP:  25; 6HR MAX TEMP:  27;

ELY            CLOUDY    27  21  80 CALM      29.86F
HIBBING        CLOUDY    27  23  85 E3        29.83F
EVELETH        PTCLDY    30  22  73 CALM      29.85F
DULUTH HARBOR  CLOUDY    34  30  86 NE7       29.90S WCI  28
TWO HARBORS    PTCLDY    28  23  80 N3        29.87S
SILVER BAY     PTCLDY    27  27 100 N3        29.87F
GRAND MARAIS     N/A     30  25  81 NE5       29.93F WCI  25
G MARAIS ARPRT CLOUDY    21  19  93 CALM      29.88S FOG
$$
MNZ029>031-032-039>041-046>048-054>057-064-280700-
   West Central Minnesota

CITY           SKY/WX    TMP DP  RH WIND       PRES   REMARKS
FERGUS FALLS   CLOUDY    30  27  86 N7        29.84R WCI  23
WHEATON        CLOUDY    28  27  93 N9        29.81F WCI  20
MORRIS         CLOUDY    34  28  80 CALM      29.77S
ALEXANDRIA     CLOUDY    34  27  75 CALM      29.78F
ELBOW LAKE     CLOUDY    32  29  90 CALM      29.79F
WADENA         CLOUDY    32  28  86 S6        29.77F WCI  26
GLENWOOD       CLOUDY    34  28  80 SE5       29.78F WCI  30
APPLETON       CLOUDY    36  28  75 E5        29.76F
BENSON         MOCLDY    37  27  65 SE7       29.78F
ORTONVILLE     CLOUDY    30  28  93 N13       29.76F WCI  20
MADISON        CLOUDY   N/A N/A N/A E6        29.75F
WILLMAR        CLOUDY    36  30  80 E3        29.79F
$$
MNZ033>034-036-042>043-049>051-058-059-280700-
   Central Minnesota

CITY           SKY/WX    TMP DP  RH WIND       PRES   REMARKS
ST CLOUD       CLOUDY    33  26  75 E7        29.80F WCI  27
6HR MIN TEMP:  31; 6HR MAX TEMP:  39;

SAUK CENTRE    CLOUDY    33  28  82 SE7       29.78F WCI  27
PAYNESVILLE    CLOUDY    35  29  81 E3        29.79F
AITKIN         CLOUDY    36  21  55 SE5       29.81F
PINE RIVER     CLOUDY    32  25  74 CALM      29.84S
BRAINERD       CLOUDY    35  25  66 SE6       29.81F WCI  30
STAPLES        CLOUDY    32  25  74 CALM      29.79F
LONG PRAIRIE   CLOUDY    32  28  86 CALM      29.78F
LITTLE FALLS   CLOUDY    34  25  69 CALM      29.81S
LITCHFIELD     CLOUDY    36  30  80 CALM      29.79S
BUFFALO        CLOUDY    34  28  78 CALM      29.81F
MAPLE LAKE     CLOUDY    34  30  85 NE3       29.82F
HUTCHINSON     CLOUDY    34  31  90 E3        29.79F
$$
MNZ037-044-045-052-053-280700-
   East Central Minnesota

CITY           SKY/WX    TMP DP  RH WIND       PRES   REMARKS
PRINCETON      CLOUDY    30  27  86 W6        29.84R WCI  24
MORA           PTCLDY    28  23  80 CALM      29.84F
CAMBRIDGE      PTCLDY    36  25  64 CALM      29.81S
RUSH CITY      PTCLDY    33  24  70 SE5       29.83F WCI  29
MOOSE LAKE     CLOUDY    27  23  86 CALM      29.83F
HINCKLEY       FAIR      30  23  74 NE3       29.83F
CLOQUET        CLOUDY    27  25  93 E5        29.84F WCI  21
MCGREGOR       CLOUDY    32  27  80 E5        29.83F WCI  27
$$
MNZ071>073-080-081-089-090-097-098-280700-
   Southwest Minnesota

CITY           SKY/WX    TMP DP  RH WIND       PRES   REMARKS
MONTEVIDEO     CLOUDY    34  30  86 E6        29.77F WCI  29
GRANITE FALLS  CLOUDY    34  31  88 N5        29.76F WCI  30
CANBY          CLOUDY    35  31  88 CALM      29.74F
MARSHALL       PTCLDY    31  28  89 E5        29.74F WCI  26
REDWOOD FALLS  CLOUDY    35  29  78 SE7       29.75F WCI  29
OLIVIA         PTCLDY    34  32  93 SE7       29.76F WCI  28
PIPESTONE      CLOUDY    36  28  75 SE5       29.69F
WINDOM         CLEAR     34  30  86 E5        29.73F WCI  30
WORTHINGTON    MOCLDY    35  30  82 SE9       29.71  WCI  28
JACKSON        CLEAR     36  32  87 SE10      29.73F
TRACY          CLEAR     31  29  92 E6        29.72F WCI  25
SLAYTON        PTCLDY    31  30  94 SE7       29.71F WCI  25
$$
MNZ065>067-074>077-082>085-091>093-280700-
   South Central Minnesota

CITY           SKY/WX    TMP DP  RH WIND       PRES   REMARKS
MANKATO          N/A     36  30  79 SE9       29.78F
NEW ULM        CLOUDY    37  30  75 SE8       29.77F
ST JAMES       CLOUDY    32  30  93 CALM      29.77F
FAIRMONT       CLOUDY    38  32  79 SE13      29.75F
GLENCOE        CLOUDY    35  32  89 CALM      29.78F
FARIBAULT      CLOUDY    39  30  70 SE7       29.80F
OWATONNA       MOCLDY    39  30  70 SE12      29.79F
WASECA         MOCLDY    36  32  87 SE9       29.80F
ALBERT LEA     CLOUDY    39  32  75 S10       29.79F
$$
MNZ078>079-086>088-094>096-280700-
   Southeast Minnesota

CITY           SKY/WX    TMP DP  RH WIND       PRES   REMARKS
ROCHESTER      CLOUDY    38  32  79 SE16      29.82F
6HR MIN TEMP:  35; 6HR MAX TEMP:  38;

RED WING       CLOUDY    39  28  65 SE8       29.83F
STANTON        CLOUDY    40  31  69 SE6       29.80F
WINONA         CLOUDY    37  32  81 SE6       29.89S
AUSTIN         CLOUDY    39  30  70 SE9       29.82F
PRESTON        CLOUDY    38  32  76 S9        29.85F
$$
ABBREVIATIONS USED IN REMARKS
   TC - TEMPERATURES IN CELSIUS
  WCI - WIND CHILL INDEX
   HX - HEAT INDEX
  VSB - VISIBILITY
$$



USA.gov is the U.S. government's official web portal to all federal, state and local government web resources and services.